Regional Weather Roundup
Issued by NWS

Home | Current Version | Previous Version | Graphics & Text | Print | Product List | Glossary On
Versions: 1 2 3 4 5 6 7 8 9 10 11 12 13 14 15 16 17 18 19 20 21 22 23 24 25 26 27 28 29 30 31 32 33 34 35 36 37 38 39 40 41 42 43 44 45 46 47 48 49 50
000
ASUS43 KFSD 271302
RWRSD

WEATHER ROUNDUP FOR SOUTH DAKOTA
NATIONAL WEATHER SERVICE SIOUX FALLS SD
800 AM CDT FRI MAR 27 2015

NOTE: "FAIR" INDICATES FEW OR NO CLOUDS BELOW 12,000 FEET WITH NO
SIGNIFICANT WEATHER AND/OR OBSTRUCTIONS TO VISIBILITY.


SDZ001>005-009-010-012>017-271400-
NORTHWEST AND NORTH CENTRAL SOUTH DAKOTA

CITY           SKY/WX    TMP DP  RH WIND       PRES   REMARKS
BUFFALO          N/A     32  29  88 S10       29.94F WCI  24
FAITH            N/A     31  27  85 SE18      30.06F WCI  19
MOBRIDGE       CLOUDY    27  15  61 S14       30.13F WCI  16
$$

SDZ012>016-024>037-041>051-057-063-072>074-271400-
SOUTHWEST AND SOUTH CENTRAL SOUTH DAKOTA

CITY           SKY/WX    TMP DP  RH WIND       PRES   REMARKS
RAPID CTY ARPT MOCLDY    32  28  85 SE6       30.04F WCI  26
PIERRE         CLOUDY    26  17  68 SE12      30.18F WCI  16
CUSTER         MOCLDY    38  34  85 W14       30.05S
ELLSWORTH AFB  CLOUDY    35  31  87 S7        30.04S WCI  29
PHILIP         CLOUDY    33  29  85 E9        30.11F WCI  25
PINE RIDGE     CLOUDY    38  33  82 S13       30.07F
SPEARFISH      MOCLDY    48  37  66 W13       30.05R
WINNER         CLOUDY    29  19  66 SE13      30.20F WCI  19
$$

SDZ004>011-016>023-039-040-271400-
NORTHEAST SOUTH DAKOTA

CITY           SKY/WX    TMP DP  RH WIND       PRES   REMARKS
ABERDEEN       MOCLDY    19  14  81 S3        30.26S
WATERTOWN      CLEAR     16  10  77 CALM      30.22F
SISSETON         N/A     18  14  84 CALM      30.26S
$$

SDZ017-020-022-023-036>040-048>070-271400-
SOUTHEAST SOUTH DAKOTA

CITY           SKY/WX    TMP DP  RH WIND       PRES   REMARKS
SIOUX FALLS    PTCLDY    15  11  83 CALM      30.27S
HURON          PTCLDY    17  12  80 S5        30.27F WCI  10
MITCHELL       PTCLDY    17  13  84 CALM      30.29F
YANKTON        CLEAR     16  12  86 NW5       30.31S WCI   9
$$

ABBREVIATIONS USED IN REMARKS
   TC - TEMPERATURE IN CELSIUS
  WCI - WIND CHILL INDEX
   HX - HEAT INDEX
  VSB - VISIBILITY



USA.gov is the U.S. government's official web portal to all federal, state and local government web resources and services.